Zurück zum Katalog

FENGYUN 1C DEB

AktivPO
NORAD 29835·DEBRIS·🇨🇳 China

Gestartet May 10, 1999 von Taiyuan Satellite Launch Center

Loading…

Nächste Überflüge (nächste 24 Stunden)

TLE

AktuellSource: Space-Track

Epoche: Sep 14, 2026, 08:45 UTC

1 29835U 99025ED  26257.36512865  .00000146  00000-0  51409-4 0  9994
2 29835  99.0664  47.8929 0165944 299.8698  86.9965 14.43568717 34693

Verfolge FENGYUN 1C DEB in Echtzeit mit AllMySat

Download on the App Store